Location: Newark
(25.6108°S, 54.5803°W)
Time: 08:13:30
(UTC+00:00)

Tiros 1 - Pass Details

Date: 30 October 2020
Orbit: 630 x 664 km, 48.4° (Epoch: 29 November)

Event Time Altitude Azimuth Distance (km) Brightness Sun altitude
Rises 18:40:31 0° 260° (W) 2,987 11.4 42.2°
Reaches altitude 10° 18:44:35 10° 227° (SW) 2,088 10.4 41.3°
Maximum altitude 18:46:12 12° 207° (SSW) 1,991 10.1 40.9°
Drops below altitude 10° 18:47:49 10° 187° (S) 2,096 9.9 40.6°
Sets 18:51:56 0° 154° (SSE) 3,018 10.4 39.6°
